Location: Dealu Mare
(46.0500°N, 22.8167°E)
Time: 22:10:08
(UTC+00:00)

Lacrosse 4 Rocket - Pass Details

Date: 15 January 2026
Orbit: 513 x 564 km, 68.0° (Epoch: 13 February)

Event Time Altitude Azimuth Distance (km) Brightness Sun altitude
Rises 05:22:20 0° 218° (SW) 2,656 4.6 -7.8°
Reaches altitude 10° 05:24:32 10° 222° (SW) 1,763 3.7 -7.4°
Maximum altitude 05:28:25 61° 303° (WNW) 597 1.2 -6.8°
Drops below altitude 10° 05:32:18 10° 25° (NNE) 1,753 3.9 -6.2°
Sets 05:34:29 0° 29° (NNE) 2,640 4.9 -5.8°
